INTELSAT 36 (IS-36)

Last updated on Thu Oct 30 2025 00:02:50 GMT+0000 (Coordinated Universal Time)

1 41747U 16053A 25302.41327073 -.00000015 00000+0 00000+0 0 9992 2 41747 0.0126 316.6951 0001447 35.0478 263.5426 1.00270607 33634
UTC large
Height (km)
Speed (km/s)
/
Latitude / Longitude
Inclination (degrees)
Orbital Period (minutes)
Azimuth
Elevation
Range (km)
Doppler Factor

Next 0 passes for location: London (51.5072 / 0.1276)

Sorry there are no passes over London.